Regional Weather Roundup
Issued by NWS

Home | Current Version | Previous Version | Graphics & Text | Print | Product List | Glossary On
Versions: 1 2 3 4 5 6 7 8 9 10 11 12 13 14 15 16 17 18 19 20 21 22 23 24 25 26 27 28 29 30 31 32 33 34 35 36 37 38 39 40 41 42 43 44 45 46 47 48 49 50
000
ASUS43 KTOP 240959
RWRKS

WEATHER ROUNDUP FOR KANSAS
NATIONAL WEATHER SERVICE GOODLAND KS
400 AM CST FRI FEB 24 2017

NOTE:  "FAIR" INDICATES FEW OR NO CLOUDS BELOW 12,000 FEET WITH NO
SIGNIFICANT WEATHER AND/OR OBSTRUCTIONS TO VISIBILITY.

KSZ001>006-013>018-027>032-041>047-241100-
NORTHWEST KANSAS

CITY           SKY/WX    TMP DP  RH WIND       PRES   REMARKS
GOODLAND       CLOUDY    21  18  88 N17       29.79F WCI   7
HAYS           CLOUDY    31  25  78 N20       29.76S WCI  19
HILL CITY      FLURRIES  28  25  88 NW17G24   29.79S WCI  16
RUSSELL        CLOUDY    31  26  82 NW21G28   29.74R WCI  18
$$

KSZ061>065-074>080-084>089-241100-
SOUTHWEST KANSAS

CITY           SKY/WX    TMP DP  RH WIND       PRES   REMARKS
DODGE CITY     PTCLDY    27  21  78 NW12      29.78R WCI  17
ELKHART          N/A     26   8  46 NW18        N/A  WCI  13
GARDEN CITY    CLOUDY    28  18  66 NW23G32   29.81R WCI  14
GREAT BEND     CLOUDY    32  26  78 NW17G23   29.75R WCI  21
LIBERAL        MOCLDY    28  18  64 NW12      29.83R WCI  18
$$

KSZ066>073-081>083-090>101-241100-
SOUTHEAST KANSAS

CITY           SKY/WX    TMP DP  RH WIND       PRES   REMARKS
CHANUTE        CLOUDY    42  37  82 NW21G30   29.60R
COFFEYVILLE    CLOUDY    46  40  79 NW17G26   29.61R
HUTCHINSON     CLOUDY    35  27  72 NW22G32   29.70S WCI  23
MEDICINE LODGE   N/A     34  24  67 N21G29    29.74R WCI  22
NEWTON         CLOUDY    34  30  85 NW18G30   29.68R WCI  23
PARSONS        CLOUDY    46  39  76 NW18G25   29.61R
WICHITA INTL   CLOUDY    36  29  75 NW24G37   29.68R WCI  24
WICHITA JABRA  CLOUDY    35  30  82 NW20G32   29.67R WCI  24
WINFIELD       CLOUDY    39  33  79 NW23G29   29.71R WCI  28
$$

KSZ007>012-019>026-033>040-048>060-102>105-241100-
NORTHEAST KANSAS

CITY           SKY/WX    TMP DP  RH WIND       PRES   REMARKS
CONCORDIA      CLOUDY    31  31 100 NW15G24   29.68R FOG     WCI  20
EMPORIA        CLOUDY    37  34  89 NW17G24   29.62R WCI  27
LAWRENCE       CLOUDY    39  36  89 W20       29.57R WCI  29
MANHATTAN      CLOUDY    36  31  82 VRB7      29.65R
OLATHE IND     CLOUDY    41  37  86 NW17G25   29.55R
OLATHE EXE     CLOUDY    40  38  93 NW16      29.53R WCI  31
SALINA         CLOUDY    36  29  75 NW22G29   29.70R WCI  25
TOPEKA BILLARD CLOUDY    39  36  89 NW13      29.59R WCI  31
TOPEKA FORBES  CLOUDY    39  34  82 NW18      29.58R WCI  30
$$




USA.gov is the U.S. government's official web portal to all federal, state and local government web resources and services.